sat.trackr.live / text

‹ back to catalog

DB CHARMS ND

NORAD 68455 · 2026-067AR

PAYLOAD ACTIVE UNKNOWN

§ Identity

Operator
Country
US
Launch date
2026-03-30
Launch site
AFWTR
Launch vehicle
Mass (kg)
RCS (m²)

External: N2YO · Heavens-Above · Gunter

§ Orbital elements

Epoch: 2026-09-20T03:07:00.609888Z

Period
94.86 min
Inclination
97.4687°
Eccentricity
0.0007470
Mean motion
15.18083474 rev/d
Perigee alt
506.5 km
Apogee alt
516.8 km
Semi-major
6,889.8 km
B*
1.4385e-4
RAAN
220.1638°
Arg perigee
92.5686°
Mean anomaly
267.6403°
Rev number
2,633

§ Raw data

DB CHARMS ND1 68455U 26067AR  26263.12986817  .00002865  00000+0  14385-3 0  99942 68455  97.4687 220.1638 0007470  92.5686 267.6403 15.18083474 26330

JSON: /api/v1/satellites/68455 · /tle

For live sub-satellite position, see the globe view (requires WebGL).

§ Visibility from observer

Set your observer location to see the next 7 days of passes ≥ 10°. The values pass through the URL so the page stays shareable.

No JS? Fill the form by hand. The geolocation button needs JavaScript.